User: anonymous   Login
Location: Geroldsau
(48.7259°N, 8.2466°E)
Time: 18:11:43
(UTC+00:00)
Language:

SL-08 R/B - Orbit

View from above orbital plane
View from above orbital plane
View from above satellite
View from above satellite

Ground track
Ground track

The orbit data is extracted from the following two-line orbital elements,

1 27561U 02054C   21267.91774161  .00000107  00000-0  35131-4 0  9991
2 27561  98.4759  66.1945 0046894  44.3573 316.1366 14.55924956999275
Epoch (UTC): 24 September 2021 22:01:32
Eccentricity: 0.0046894
inclination: 98.4759°
perigee height: 673 km
apogee height: 739 km
right ascension of ascending node: 66.1945°
argument of perigee: 44.3573°
revolutions per day: 14.55924956
mean anomaly at epoch: 316.1366°
orbit number at epoch: 99927

The dashed part of the orbit path shows where the satellite is in the earth's shadow,  

DLR